Cactus Peak, Santa Catalina Island Weather observations

Data are for 10 minute period ending at time listed.
 Day   Time   Solar   Ave.   Ave.  Ave.  Vector    Max.   Stn.    Total
  of    of     Rad.   Air    Rel.  Wind   Wind     Wind   Baro.  Precip.
Year   Day            Temp.  Hum.  Speed  Dir.     Gust   Pres.         
2026   (PST)   W/m2    F      %     mph   deg.      mph    mb.     in.  
------------------------------------------------------------------------
 126    0:00    0.0    51   99.9     5    313.1     7.2    999.0   0.00  
 126    0:10    0.0    51   99.9     7    325.7     9.6    999.0   0.00  
 126    0:20    0.0    51   99.9     8    336.8    10.8    999.0   0.00  
 126    0:30    0.0    51   99.9     8    351.0     9.6    999.0   0.00  
 126    0:40    0.0    51   99.9     6      3.3     8.4    999.0   0.00  
 126    0:50    0.0    51   99.9     6     12.3     7.8    999.0   0.00  
 126    1:00    0.0    51   99.9     6     25.4     6.6    999.0   0.00  
 126    1:10    0.0    51   99.9     5     27.0     6.6    999.0   0.00  
 126    1:20    0.0    51   99.9     4     10.5     4.8    999.0   0.00  
 126    1:30    0.0    51   99.9     2    349.2     3.0    999.0   0.00  
 126    1:40    0.0    52   99.9     2      3.7     3.0    999.0   0.00  
 126    1:50    0.0    52   99.9     2      9.7     3.0    999.0   0.00  
 126    2:00    0.0    52   99.9     4     25.0     4.2    999.0   0.00  
 126    2:10    0.0    51   99.9     3     45.6     4.2    999.0   0.00  
 126    2:20    0.0    51   99.9     4     70.3     4.8    999.0   0.00  
 126    2:30    0.0    52   85.6     4     78.1     4.8    999.0   0.00  
 126    2:40    0.0    53   78.7     4     79.6     4.8    999.0   0.00  
 126    2:50    0.0    53   77.5     4     99.2     4.2    999.0   0.00  
 126    3:00    0.0    52   79.7     4    122.9     6.0    999.0   0.00  
 126    3:10    0.0    52   82.5     5    124.9     6.6    999.0   0.00  
 126    3:20    0.0    52   83.8     7    135.1     9.0    999.0   0.00  
 126    3:30    0.0    51   87.2     8    154.6     9.0    999.0   0.00  
 126    3:40    0.0    51   90.0     7    162.2     8.4    999.0   0.00  
 126    3:50    0.0    51   90.9     8    149.3     8.4    999.0   0.00  
 126    4:00    0.0    51   98.0     7    162.0     8.4    999.0   0.00  
 126    4:10    0.0    51   99.9     5    168.6     7.2    999.0   0.00  
 126    4:20    0.0    51   99.9     5    170.6     7.2    999.0   0.00  
 126    4:30    0.0    51   99.9     7    175.4     7.8    999.0   0.00  
 126    4:40    0.0    51   99.9     7    173.9     8.4    999.0   0.00  
 126    4:50    0.0    51   99.9     7    172.6     9.0    999.0   0.00  
 126    5:00    1.0    51   99.9     6    171.6     7.8    999.0   0.00  
 126    5:10    8.0    51   99.9     7    170.6     9.0    999.0   0.00  
 126    5:20   24.0    51   99.9     8    171.4    10.8    999.0   0.00  
 126    5:30   43.0    51   99.9     8    175.2     9.6    999.0   0.00  
 126    5:40   57.0    51   99.9     9    182.5    10.2    999.0   0.00  
 126    5:50   87.0    51   99.9     8    180.8    10.2    999.0   0.00  
 126    6:00  125.0    52   99.9     8    180.6     9.0    999.0   0.00  
 126    6:10  146.0    52   99.9     7    182.9     9.6    999.0   0.00  
 126    6:20  173.0    52   99.9     7    190.0     9.0    999.0   0.00  
 126    6:30  206.0    53   99.9     7    191.1     9.6    999.0   0.00  
 126    6:40  167.0    53   99.9     6    191.8     9.0    999.0   0.00  
 126    6:50  210.0    54   99.9     5    188.0     7.2    999.0   0.00  
 126    7:00  295.0    54   58.1     7    196.7     9.6    999.0   0.00  
 126    7:10  333.0    54    0.4     5    199.9     7.8    999.0   0.00  
 126    7:20  372.0    55   75.9     5    191.9     8.4    999.0   0.00  
 126    7:30  385.0    55   85.9     4    180.4     6.6    999.0   0.00  
 126    7:40  413.0    55   85.3     6    183.3     9.6    999.0   0.00  
 126    7:50  442.0    56   83.8     4    187.3     6.6    999.0   0.00  
 126    8:00  407.0    56   80.7     3    176.3     5.4    999.0   0.00  
 126    8:10  405.0    57   78.3     5    193.6     7.2    999.0   0.00  
 126    8:20  524.0    57   78.7     5    175.9     8.4    999.0   0.00  
 126    8:30  321.0    57   77.9     6    178.8     9.0    999.0   0.00  
 126    8:40  422.0    57   77.2     6    179.5    10.2    999.0   0.00  
 126    8:50  610.0    57   76.8     6    184.0     9.6    999.0   0.00  
 126    9:00  638.0    58   76.6     8    185.6    13.7    999.0   0.00  
 126    9:10  664.0    57   79.6     9    175.9    14.9    999.0   0.00  
 126    9:20  693.0    57   80.0    10    180.5    16.1    999.0   0.00  
 126    9:30  599.0    58   79.5    11    185.6    18.5    999.0   0.00  
 126    9:40  731.0    58   78.6    10    190.5    16.1    999.0   0.00  
 126    9:50  787.0    58   76.9     9    192.2    14.3    999.0   0.00  
 126   10:00  816.0    59   77.1    10    222.6    14.9    999.0   0.00  
 126   10:10  717.0    59   75.4    10    218.4    15.5    999.0   0.00  
 126   10:20  750.0    60   75.6    10    226.3    14.9    999.0   0.00  
 126   10:30  844.0    59   76.1     8    238.2    12.5    999.0   0.00  
 126   10:40  861.0    59   75.8     9    243.1    14.3    999.0   0.00  
 126   10:50  863.0    60   75.2     8    241.9    11.9    999.0   0.00  
 126   11:00  860.0    60   71.4     6    256.0    10.8    999.0   0.00  
 126   11:10  867.0    62   65.5     5    271.5    10.2    999.0   0.00  
 126   11:20  755.0    63   63.1     5    286.7    10.8    999.0   0.00  
 126   11:30  882.0    63   63.7     6    259.6    11.3    999.0   0.00  
 126   11:40  885.0    63   64.4     6    287.3    10.2    999.0   0.00  
 126   11:50  888.0    63   64.4     7    307.9    11.9    999.0   0.00  
 126   12:00  885.0    62   66.2     7    310.8    11.3    999.0   0.00  
 126   12:10  886.0    62   66.4     7    308.6    11.9    999.0   0.00  
 126   12:20  886.0    62   67.3     8    319.6    13.1    999.0   0.00  
 126   12:30  874.0    62   67.4     7    315.8    13.7    999.0   0.00  
 126   12:40  463.0    63   65.0     8    315.8    12.5    999.0   0.00  
 126   12:50  872.0    63   64.1     8    320.8    13.1    999.0   0.00  
 126   13:00  863.0    62   66.2     9    326.2    13.7    999.0   0.00  

Return to Cactus Peak graphs page.


Western Regional Climate Center,wrcc@dri.edu